Location: ???????
(55.7027°N, 37.3832°E)
Time: 06:26:39
(UTC+00:00)

Cosmos 1833 Rocket - Pass Details

Date: 14 April 2026
Orbit: 832 x 838 km, 71.0° (Epoch: 12 May)

Event Time Altitude Azimuth Distance (km) Brightness Sun altitude
Exits shadow 23:35:48 36° 232° (SW) 1,306 3.2 -19.6°
Maximum altitude 23:38:10 71° 308° (NW) 881 2.7 -19.4°
Drops below altitude 10° 23:43:48 10° 32° (NNE) 2,454 6.4 -19.0°
Sets 23:46:16 0° 35° (NE) 3,392 7.6 -18.8°
